Time,TemperatureF,DewpointF,PressureIn,WindDirection,WindDirectionDegrees,WindSpeedMPH,WindSpeedGustMPH,Humidity,HourlyPrecipIn,Conditions,Clouds,dailyrainin,SoftwareType,DateUTC
2013-02-07 00:00:00,40.8,23.6,30.05,ENE,68,6.3,6.3,50,0.00,CLR,CLR,0.00,WeatherDisplay:10.37,2013-02-07 05:00:00,
2013-02-07 00:03:00,40.8,23.6,30.05,ENE,68,6.3,6.3,50,0.00,CLR,CLR,0.00,WeatherDisplay:10.37,2013-02-07 05:03:00,
2013-02-07 00:08:00,40.3,23.6,30.04,NE,45,5.3,5.8,51,0.00,CLR,CLR,0.00,WeatherDisplay:10.37,2013-02-07 05:08:00,
2013-02-07 00:13:00,40.1,23.4,30.04,NE,45,6.3,6.3,51,0.00,CLR,CLR,0.00,WeatherDisplay:10.37,2013-02-07 05:13:00,
2013-02-07 00:19:00,39.7,23.5,30.04,NE,45,6.5,6.9,52,0.00,CLR,CLR,0.00,WeatherDisplay:10.37,2013-02-07 05:19:00,
2013-02-07 00:24:00,39.7,23.5,30.04,NE,45,6.3,6.3,52,0.00,CLR,CLR,0.00,WeatherDisplay:10.37,2013-02-07 05:24:00,
2013-02-07 00:29:00,39.6,23.8,30.04,NE,45,6.3,6.3,53,0.00,CLR,CLR,0.00,WeatherDisplay:10.37,2013-02-07 05:29:00,
2013-02-07 00:34:00,39.4,23.7,30.05,NE,45,6.5,6.9,53,0.00,CLR,CLR,0.00,WeatherDisplay:10.37,2013-02-07 05:34:00,
2013-02-07 00:39:00,39.6,23.8,30.05,NE,45,4.9,4.9,53,0.00,CLR,CLR,0.00,WeatherDisplay:10.37,2013-02-07 05:39:00,
2013-02-07 00:45:00,39.6,23.8,30.05,NE,45,7.0,7.0,53,0.00,CLR,CLR,0.00,WeatherDisplay:10.37,2013-02-07 05:45:00,
2013-02-07 00:50:00,39.4,23.7,30.05,NE,45,5.2,5.8,53,0.00,CLR,CLR,0.00,WeatherDisplay:10.37,2013-02-07 05:50:00,
2013-02-07 00:55:00,39.4,24.1,30.05,NE,45,5.5,5.8,54,0.00,CLR,CLR,0.00,WeatherDisplay:10.37,2013-02-07 05:55:00,
2013-02-07 01:00:00,39.6,23.8,30.05,NE,45,6.5,6.9,53,0.00,CLR,CLR,0.00,WeatherDisplay:10.37,2013-02-07 06:00:00,
2013-02-07 01:06:00,39.6,23.8,30.05,NE,45,4.6,4.6,53,0.00,CLR,CLR,0.00,WeatherDisplay:10.37,2013-02-07 06:06:00,
2013-02-07 01:11:00,39.4,23.7,30.05,NE,45,4.9,4.9,53,0.00,CLR,CLR,0.00,WeatherDisplay:10.37,2013-02-07 06:11:00,
2013-02-07 01:16:00,39.7,24.4,30.05,NE,45,5.2,5.8,54,0.00,CLR,CLR,0.00,WeatherDisplay:10.37,2013-02-07 06:16:00,
2013-02-07 01:21:00,39.7,24.4,30.05,NE,45,4.0,4.0,54,0.00,CLR,CLR,0.00,WeatherDisplay:10.37,2013-02-07 06:21:00,
2013-02-07 01:26:00,39.7,24.4,30.05,ENE,68,4.9,4.9,54,0.00,CLR,CLR,0.00,WeatherDisplay:10.37,2013-02-07 06:26:00,
2013-02-07 01:31:00,40.1,24.3,30.05,NE,45,5.5,5.8,53,0.00,CLR,CLR,0.00,WeatherDisplay:10.37,2013-02-07 06:31:00,
2013-02-07 01:37:00,40.1,24.3,30.04,ENE,68,4.0,4.0,53,0.00,CLR,CLR,0.00,WeatherDisplay:10.37,2013-02-07 06:37:00,
2013-02-07 01:42:00,40.1,24.3,30.04,ENE,68,4.9,4.9,53,0.00,CLR,CLR,0.00,WeatherDisplay:10.37,2013-02-07 06:42:00,
2013-02-07 01:47:00,40.3,24.5,30.04,NE,45,3.3,3.5,53,0.00,CLR,CLR,0.00,WeatherDisplay:10.37,2013-02-07 06:47:00,
2013-02-07 01:52:00,40.3,24.5,30.04,ENE,68,0.0,0.0,53,0.00,CLR,CLR,0.00,WeatherDisplay:10.37,2013-02-07 06:52:00,
2013-02-07 01:57:00,40.3,24.5,30.05,NE,45,3.8,3.8,53,0.00,CLR,CLR,0.00,WeatherDisplay:10.37,2013-02-07 06:57:00,
2013-02-07 02:02:00,40.3,24.5,30.04,NE,45,0.0,0.0,53,0.00,CLR,CLR,0.00,WeatherDisplay:10.37,2013-02-07 07:02:00,
2013-02-07 02:07:00,40.3,24.5,30.04,NE,45,0.0,0.0,53,0.00,CLR,CLR,0.00,WeatherDisplay:10.37,2013-02-07 07:07:00,
2013-02-07 02:13:00,39.9,24.2,30.05,ESE,112,0.0,0.0,53,0.00,CLR,CLR,0.00,WeatherDisplay:10.37,2013-02-07 07:13:00,
2013-02-07 02:18:00,39.0,23.8,30.05,SSE,158,0.0,0.0,54,0.00,CLR,CLR,0.00,WeatherDisplay:10.37,2013-02-07 07:18:00,
2013-02-07 02:23:00,38.3,23.5,30.05,SSE,158,0.0,0.0,55,0.00,CLR,CLR,0.00,WeatherDisplay:10.37,2013-02-07 07:23:00,
2013-02-07 02:28:00,37.6,22.9,30.05,SW,225,0.0,0.0,55,0.00,CLR,CLR,0.00,WeatherDisplay:10.37,2013-02-07 07:28:00,
2013-02-07 02:33:00,37.2,22.9,30.05,SSW,202,0.0,0.0,56,0.00,CLR,CLR,0.00,WeatherDisplay:10.37,2013-02-07 07:33:00,
2013-02-07 02:38:00,37.0,23.2,30.05,SSW,202,0.0,0.0,57,0.00,CLR,CLR,0.00,WeatherDisplay:10.37,2013-02-07 07:38:00,
2013-02-07 02:44:00,36.7,22.9,30.05,SSW,202,0.0,0.0,57,0.00,CLR,CLR,0.00,WeatherDisplay:10.37,2013-02-07 07:44:00,
2013-02-07 02:49:00,36.7,23.3,30.05,SSW,202,0.0,0.0,58,0.00,CLR,CLR,0.00,WeatherDisplay:10.37,2013-02-07 07:49:00,
2013-02-07 02:54:00,36.5,23.1,30.05,SSW,202,0.0,0.0,58,0.00,CLR,CLR,0.00,WeatherDisplay:10.37,2013-02-07 07:54:00,
2013-02-07 02:59:00,36.3,22.9,30.05,SSW,202,0.0,0.0,58,0.00,CLR,CLR,0.00,WeatherDisplay:10.37,2013-02-07 07:59:00,
2013-02-07 03:04:00,36.3,22.9,30.05,SSW,202,0.0,0.0,58,0.00,CLR,CLR,0.00,WeatherDisplay:10.37,2013-02-07 08:04:00,
2013-02-07 03:09:00,36.3,22.9,30.05,SSW,202,0.0,0.0,58,0.00,CLR,CLR,0.00,WeatherDisplay:10.37,2013-02-07 08:09:00,
2013-02-07 03:14:00,35.6,23.1,30.05,NE,45,0.0,0.0,60,0.00,CLR,CLR,0.00,WeatherDisplay:10.37,2013-02-07 08:14:00,
2013-02-07 03:19:00,35.2,23.1,30.04,NE,45,4.0,4.0,61,0.00,CLR,CLR,0.00,WeatherDisplay:10.37,2013-02-07 08:19:00,
2013-02-07 03:24:00,35.6,23.5,30.05,NE,45,4.9,4.9,61,0.00,CLR,CLR,0.00,WeatherDisplay:10.37,2013-02-07 08:24:00,
2013-02-07 03:29:00,36.1,24.0,30.05,NE,45,4.4,4.6,61,0.00,CLR,CLR,0.00,WeatherDisplay:10.37,2013-02-07 08:29:00,
2013-02-07 03:35:00,37.0,23.6,30.05,ENE,68,4.2,4.6,58,0.00,CLR,CLR,0.00,WeatherDisplay:10.37,2013-02-07 08:35:00,
2013-02-07 03:40:00,37.8,23.9,30.05,ENE,68,3.3,3.5,57,0.00,CLR,CLR,0.00,WeatherDisplay:10.37,2013-02-07 08:40:00,
2013-02-07 03:45:00,38.1,24.2,30.05,ENE,68,6.5,6.9,57,0.00,CLR,CLR,0.00,WeatherDisplay:10.37,2013-02-07 08:45:00,
2013-02-07 03:50:00,38.1,23.8,30.05,ENE,68,7.2,7.2,56,0.00,CLR,CLR,0.00,WeatherDisplay:10.37,2013-02-07 08:50:00,
2013-02-07 03:55:00,38.3,24.0,30.05,NE,45,6.8,6.8,56,0.00,CLR,CLR,0.00,WeatherDisplay:10.37,2013-02-07 08:55:00,
2013-02-07 04:00:00,38.3,24.4,30.05,NE,45,5.5,5.8,57,0.00,CLR,CLR,0.00,WeatherDisplay:10.37,2013-02-07 09:00:00,
2013-02-07 04:05:00,37.9,24.0,30.06,ENE,68,6.1,6.1,57,0.00,CLR,CLR,0.00,WeatherDisplay:10.37,2013-02-07 09:05:00,
2013-02-07 04:10:00,37.9,24.0,30.05,ENE,68,6.8,6.8,57,0.00,CLR,CLR,0.00,WeatherDisplay:10.37,2013-02-07 09:10:00,
2013-02-07 04:15:00,37.9,24.0,30.05,ENE,68,7.0,7.0,57,0.00,CLR,CLR,0.00,WeatherDisplay:10.37,2013-02-07 09:15:00,
2013-02-07 04:20:00,38.1,24.2,30.06,NE,45,7.0,7.0,57,0.00,CLR,CLR,0.00,WeatherDisplay:10.37,2013-02-07 09:20:00,
2013-02-07 04:26:00,38.1,24.2,30.06,NE,45,5.2,6.9,57,0.00,CLR,CLR,0.00,WeatherDisplay:10.37,2013-02-07 09:26:00,
2013-02-07 04:31:00,38.1,24.2,30.06,NE,45,5.3,5.8,57,0.00,CLR,CLR,0.00,WeatherDisplay:10.37,2013-02-07 09:31:00,
2013-02-07 04:36:00,38.1,24.2,30.06,NE,45,5.3,5.8,57,0.00,CLR,CLR,0.00,WeatherDisplay:10.37,2013-02-07 09:36:00,
2013-02-07 04:41:00,38.1,24.2,30.07,NE,45,4.6,6.9,57,0.00,CLR,CLR,0.00,WeatherDisplay:10.37,2013-02-07 09:41:00,
2013-02-07 04:46:00,37.9,24.0,30.07,ENE,68,5.3,5.8,57,0.00,CLR,CLR,0.00,WeatherDisplay:10.37,2013-02-07 09:46:00,
2013-02-07 04:52:00,37.9,24.0,30.08,NE,45,5.3,5.8,57,0.00,CLR,CLR,0.00,WeatherDisplay:10.37,2013-02-07 09:52:00,
2013-02-07 04:57:00,37.9,24.5,30.08,NE,45,5.3,5.8,58,0.00,CLR,CLR,0.00,WeatherDisplay:10.37,2013-02-07 09:57:00,
2013-02-07 05:02:00,37.9,24.5,30.08,NE,45,6.3,6.3,58,0.00,CLR,CLR,0.00,WeatherDisplay:10.37,2013-02-07 10:02:00,
2013-02-07 05:07:00,37.8,24.3,30.09,ENE,68,5.3,5.8,58,0.00,CLR,CLR,0.00,WeatherDisplay:10.37,2013-02-07 10:07:00,
2013-02-07 05:12:00,37.9,24.5,30.09,NE,45,6.3,6.3,58,0.00,CLR,CLR,0.00,WeatherDisplay:10.37,2013-02-07 10:12:00,
2013-02-07 05:17:00,37.8,24.3,30.09,ENE,68,8.1,8.1,58,0.00,CLR,CLR,0.00,WeatherDisplay:10.37,2013-02-07 10:17:00,
2013-02-07 05:23:00,37.6,24.5,30.09,NE,45,7.4,7.4,59,0.00,CLR,CLR,0.00,WeatherDisplay:10.37,2013-02-07 10:23:00,
2013-02-07 05:28:00,37.2,24.6,30.09,ENE,68,6.1,6.1,60,0.00,CLR,CLR,0.00,WeatherDisplay:10.37,2013-02-07 10:28:00,
2013-02-07 05:33:00,37.0,24.8,30.09,ENE,68,7.0,7.0,61,0.00,CLR,CLR,0.00,WeatherDisplay:10.37,2013-02-07 10:33:00,
2013-02-07 05:38:00,36.7,24.9,30.09,NE,45,4.4,5.8,62,0.00,CLR,CLR,0.00,WeatherDisplay:10.37,2013-02-07 10:38:00,
2013-02-07 05:43:00,37.0,25.2,30.09,East,90,2.2,2.3,62,0.00,CLR,CLR,0.00,WeatherDisplay:10.37,2013-02-07 10:43:00,
2013-02-07 05:49:00,36.7,25.3,30.10,SSW,202,0.0,0.0,63,0.00,CLR,CLR,0.00,WeatherDisplay:10.37,2013-02-07 10:49:00,
2013-02-07 05:54:00,36.7,25.3,30.10,East,90,0.6,1.2,63,0.00,CLR,CLR,0.00,WeatherDisplay:10.37,2013-02-07 10:54:00,
2013-02-07 05:59:00,36.5,25.8,30.10,NE,45,9.0,9.2,65,0.00,CLR,CLR,0.00,WeatherDisplay:10.37,2013-02-07 10:59:00,
2013-02-07 06:04:00,36.3,25.7,30.10,East,90,0.4,0.4,65,0.00,CLR,CLR,0.00,WeatherDisplay:10.37,2013-02-07 11:04:00,
2013-02-07 06:09:00,36.1,25.9,30.10,South,180,0.0,0.0,66,0.00,CLR,CLR,0.00,WeatherDisplay:10.37,2013-02-07 11:09:00,
2013-02-07 06:15:00,36.0,25.7,30.10,NE,45,0.0,0.0,66,0.00,CLR,CLR,0.00,WeatherDisplay:10.37,2013-02-07 11:15:00,
2013-02-07 06:20:00,35.6,25.7,30.11,SSW,202,4.4,4.4,67,0.00,CLR,CLR,0.00,WeatherDisplay:10.37,2013-02-07 11:20:00,
2013-02-07 06:25:00,35.4,25.5,30.10,East,90,0.0,0.0,67,0.00,CLR,CLR,0.00,WeatherDisplay:10.37,2013-02-07 11:25:00,
2013-02-07 06:30:00,35.4,25.9,30.10,ENE,68,0.0,0.0,68,0.00,CLR,CLR,0.00,WeatherDisplay:10.37,2013-02-07 11:30:00,
2013-02-07 06:35:00,35.2,26.1,30.10,ENE,68,0.0,0.0,69,0.00,CLR,CLR,0.00,WeatherDisplay:10.37,2013-02-07 11:35:00,
2013-02-07 06:40:00,35.2,26.1,30.10,ENE,68,3.8,3.8,69,0.00,CLR,CLR,0.00,WeatherDisplay:10.37,2013-02-07 11:40:00,
2013-02-07 06:45:00,35.2,26.8,30.10,NE,45,0.0,0.0,71,0.00,CLR,CLR,0.00,WeatherDisplay:10.37,2013-02-07 11:45:00,
2013-02-07 06:50:00,34.9,26.8,30.10,SSE,158,5.3,5.8,72,0.00,CLR,CLR,0.00,WeatherDisplay:10.37,2013-02-07 11:50:00,
2013-02-07 06:55:00,34.7,26.9,30.09,ENE,68,6.3,6.3,73,0.00,CLR,CLR,0.00,WeatherDisplay:10.37,2013-02-07 11:55:00,
2013-02-07 07:00:00,34.5,27.1,30.09,ENE,68,7.9,8.1,74,0.00,CLR,CLR,0.00,WeatherDisplay:10.37,2013-02-07 12:00:00,
2013-02-07 07:05:00,34.5,27.1,30.09,SE,135,0.8,1.2,74,0.00,CLR,CLR,0.00,WeatherDisplay:10.37,2013-02-07 12:05:00,
2013-02-07 07:10:00,34.5,27.4,30.09,NE,45,2.0,2.3,75,0.00,CLR,CLR,0.00,WeatherDisplay:10.37,2013-02-07 12:10:00,
2013-02-07 07:15:00,34.5,27.7,30.09,ESE,112,2.2,5.8,76,0.00,CLR,CLR,0.00,WeatherDisplay:10.37,2013-02-07 12:15:00,
2013-02-07 07:20:00,34.5,27.7,30.09,SE,135,4.9,4.9,76,0.00,CLR,CLR,0.00,WeatherDisplay:10.37,2013-02-07 12:20:00,
2013-02-07 07:26:00,34.3,27.9,30.09,NE,45,2.6,2.6,77,0.00,CLR,CLR,0.00,WeatherDisplay:10.37,2013-02-07 12:26:00,
2013-02-07 07:31:00,34.5,28.4,30.09,ENE,68,7.4,7.4,78,0.00,CLR,CLR,0.00,WeatherDisplay:10.37,2013-02-07 12:31:00,
2013-02-07 07:36:00,34.5,28.4,30.10,East,90,5.3,5.8,78,0.00,CLR,CLR,0.00,WeatherDisplay:10.37,2013-02-07 12:36:00,
2013-02-07 07:41:00,34.3,28.8,30.10,NE,45,6.1,6.1,80,0.00,CLR,CLR,0.00,WeatherDisplay:10.37,2013-02-07 12:41:00,
2013-02-07 07:46:00,34.3,28.8,30.10,ENE,68,6.5,6.5,80,0.00,CLR,CLR,0.00,WeatherDisplay:10.37,2013-02-07 12:46:00,
2013-02-07 07:51:00,34.5,29.0,30.10,NE,45,3.8,3.8,80,0.00,CLR,CLR,0.00,WeatherDisplay:10.37,2013-02-07 12:51:00,
2013-02-07 07:56:00,34.5,29.0,30.10,NE,45,4.9,4.9,80,0.00,CLR,CLR,0.00,WeatherDisplay:10.37,2013-02-07 12:56:00,
2013-02-07 08:01:00,34.5,29.3,30.10,ENE,68,8.3,8.3,81,0.00,CLR,CLR,0.00,WeatherDisplay:10.37,2013-02-07 13:01:00,
2013-02-07 08:06:00,34.5,29.0,30.10,ENE,68,4.9,4.9,80,0.00,CLR,CLR,0.00,WeatherDisplay:10.37,2013-02-07 13:06:00,
2013-02-07 08:11:00,34.7,29.5,30.10,NE,45,3.8,3.8,81,0.00,CLR,CLR,0.00,WeatherDisplay:10.37,2013-02-07 13:11:00,
2013-02-07 08:16:00,34.9,29.3,30.11,ENE,68,4.6,4.6,80,0.00,CLR,CLR,0.00,WeatherDisplay:10.37,2013-02-07 13:16:00,
2013-02-07 08:21:00,35.2,29.7,30.11,NE,45,4.2,4.2,80,0.00,CLR,CLR,0.00,WeatherDisplay:10.37,2013-02-07 13:21:00,
2013-02-07 08:26:00,35.2,29.7,30.10,NE,45,5.3,6.9,80,0.00,CLR,CLR,0.00,WeatherDisplay:10.37,2013-02-07 13:26:00,
2013-02-07 08:32:00,35.2,29.7,30.10,NE,45,3.5,5.8,80,0.00,CLR,CLR,0.00,WeatherDisplay:10.37,2013-02-07 13:32:00,
2013-02-07 08:37:00,35.2,29.7,30.11,NE,45,5.3,5.8,80,0.00,CLR,CLR,0.00,WeatherDisplay:10.37,2013-02-07 13:37:00,
2013-02-07 08:42:00,35.4,29.9,30.11,ENE,68,5.3,5.8,80,0.00,CLR,CLR,0.00,WeatherDisplay:10.37,2013-02-07 13:42:00,
2013-02-07 08:47:00,35.8,30.2,30.11,ENE,68,5.5,5.8,80,0.00,CLR,CLR,0.00,WeatherDisplay:10.37,2013-02-07 13:47:00,
2013-02-07 08:52:00,35.6,30.0,30.11,NE,45,5.2,5.8,80,0.00,CLR,CLR,0.00,WeatherDisplay:10.37,2013-02-07 13:52:00,
2013-02-07 08:57:00,36.0,30.4,30.11,NE,45,4.0,4.0,80,0.00,CLR,CLR,0.00,WeatherDisplay:10.37,2013-02-07 13:57:00,
2013-02-07 09:02:00,36.1,30.3,30.11,NE,45,6.1,6.1,79,0.00,CLR,CLR,0.00,WeatherDisplay:10.37,2013-02-07 14:02:00,
2013-02-07 09:08:00,36.1,30.3,30.11,NE,45,7.0,7.0,79,0.00,CLR,CLR,0.00,WeatherDisplay:10.37,2013-02-07 14:08:00,
2013-02-07 09:13:00,36.7,30.8,30.11,NE,45,4.9,4.9,79,0.00,CLR,CLR,0.00,WeatherDisplay:10.37,2013-02-07 14:13:00,
2013-02-07 09:18:00,36.7,30.8,30.11,NE,45,6.3,6.3,79,0.00,CLR,CLR,0.00,WeatherDisplay:10.37,2013-02-07 14:18:00,
2013-02-07 09:23:00,36.5,30.6,30.11,NE,45,7.4,7.4,79,0.00,CLR,CLR,0.00,WeatherDisplay:10.37,2013-02-07 14:23:00,
2013-02-07 09:28:00,36.5,30.6,30.11,ENE,68,6.8,6.9,79,0.00,CLR,CLR,0.00,WeatherDisplay:10.37,2013-02-07 14:28:00,
2013-02-07 09:33:00,36.7,30.5,30.11,SSE,158,5.5,5.8,78,0.00,CLR,CLR,0.00,WeatherDisplay:10.37,2013-02-07 14:33:00,
2013-02-07 09:38:00,36.7,30.5,30.10,ENE,68,4.0,4.0,78,0.00,CLR,CLR,0.00,WeatherDisplay:10.37,2013-02-07 14:38:00,
2013-02-07 09:44:00,37.2,31.0,30.10,SE,135,0.0,4.6,78,0.00,CLR,CLR,0.00,WeatherDisplay:10.37,2013-02-07 14:44:00,
2013-02-07 09:49:00,37.2,31.0,30.10,ENE,68,5.8,6.9,78,0.00,CLR,CLR,0.00,WeatherDisplay:10.37,2013-02-07 14:49:00,
2013-02-07 09:54:00,37.2,31.0,30.10,ENE,68,0.2,0.0,78,0.00,CLR,CLR,0.00,WeatherDisplay:10.37,2013-02-07 14:54:00,
2013-02-07 09:59:00,37.6,31.3,30.10,ENE,68,5.3,5.8,78,0.00,CLR,CLR,0.00,WeatherDisplay:10.37,2013-02-07 14:59:00,
2013-02-07 10:04:00,37.8,31.2,30.10,WSW,248,0.0,0.0,77,0.00,CLR,CLR,0.00,WeatherDisplay:10.37,2013-02-07 15:04:00,
2013-02-07 10:09:00,37.4,30.8,30.10,ENE,68,6.1,8.1,77,0.00,CLR,CLR,0.00,WeatherDisplay:10.37,2013-02-07 15:09:00,
2013-02-07 10:14:00,37.6,31.0,30.10,ENE,68,5.8,5.8,77,0.00,CLR,CLR,0.00,WeatherDisplay:10.37,2013-02-07 15:14:00,
2013-02-07 10:19:00,37.9,31.4,30.10,NE,45,5.2,5.8,77,0.00,CLR,CLR,0.00,WeatherDisplay:10.37,2013-02-07 15:19:00,
2013-02-07 10:24:00,37.6,31.0,30.10,East,90,2.6,2.6,77,0.00,CLR,CLR,0.00,WeatherDisplay:10.37,2013-02-07 15:24:00,
2013-02-07 10:29:00,37.9,31.4,30.10,SE,135,0.0,0.0,77,0.00,CLR,CLR,0.00,WeatherDisplay:10.37,2013-02-07 15:29:00,
2013-02-07 10:34:00,37.8,31.2,30.09,ENE,68,6.5,6.9,77,0.00,CLR,CLR,0.00,WeatherDisplay:10.37,2013-02-07 15:34:00,
2013-02-07 10:39:00,38.3,31.7,30.09,ENE,68,4.6,4.6,77,0.00,CLR,CLR,0.00,WeatherDisplay:10.37,2013-02-07 15:39:00,
2013-02-07 10:45:00,38.3,31.4,30.09,ESE,112,1.1,1.2,76,0.00,CLR,CLR,0.00,WeatherDisplay:10.37,2013-02-07 15:45:00,
2013-02-07 10:50:00,38.7,31.7,30.09,NE,45,4.2,4.6,76,0.00,CLR,CLR,0.00,WeatherDisplay:10.37,2013-02-07 15:50:00,
2013-02-07 10:55:00,39.0,32.1,30.09,ENE,68,2.0,2.3,76,0.00,CLR,CLR,0.00,WeatherDisplay:10.37,2013-02-07 15:55:00,
2013-02-07 11:00:00,39.4,32.4,30.09,NNE,22,3.1,3.5,76,0.00,CLR,CLR,0.00,WeatherDisplay:10.37,2013-02-07 16:00:00,
2013-02-07 11:05:00,39.7,32.8,30.09,ENE,68,0.0,0.0,76,0.00,CLR,CLR,0.00,WeatherDisplay:10.37,2013-02-07 16:05:00,
2013-02-07 11:10:00,40.3,33.0,30.08,ENE,68,0.0,0.0,75,0.00,CLR,CLR,0.00,WeatherDisplay:10.37,2013-02-07 16:10:00,
2013-02-07 11:15:00,39.9,32.3,30.08,NE,45,4.4,4.6,74,0.00,CLR,CLR,0.00,WeatherDisplay:10.37,2013-02-07 16:15:00,
2013-02-07 11:20:00,40.1,32.5,30.08,NE,45,7.0,7.0,74,0.00,CLR,CLR,0.00,WeatherDisplay:10.37,2013-02-07 16:20:00,
2013-02-07 11:25:00,39.7,32.1,30.08,ENE,68,5.3,5.8,74,0.00,CLR,CLR,0.00,WeatherDisplay:10.37,2013-02-07 16:25:00,
2013-02-07 11:30:00,40.1,32.5,30.08,SE,135,0.0,0.0,74,0.00,CLR,CLR,0.00,WeatherDisplay:10.37,2013-02-07 16:30:00,
2013-02-07 11:35:00,40.6,33.0,30.08,ENE,68,9.7,9.7,74,0.00,CLR,CLR,0.00,WeatherDisplay:10.37,2013-02-07 16:35:00,
2013-02-07 11:41:00,40.1,32.5,30.07,ENE,68,4.4,4.6,74,0.00,CLR,CLR,0.00,WeatherDisplay:10.37,2013-02-07 16:41:00,
2013-02-07 11:46:00,40.3,32.6,30.07,NE,45,4.0,4.0,74,0.00,CLR,CLR,0.00,WeatherDisplay:10.37,2013-02-07 16:46:00,
2013-02-07 11:51:00,40.1,32.5,30.06,SSE,158,3.1,3.5,74,0.00,CLR,CLR,0.00,WeatherDisplay:10.37,2013-02-07 16:51:00,
2013-02-07 11:56:00,40.3,32.6,30.06,ENE,68,5.3,5.8,74,0.00,CLR,CLR,0.00,WeatherDisplay:10.37,2013-02-07 16:56:00,
2013-02-07 12:01:00,39.7,32.1,30.06,SE,135,4.4,4.6,74,0.00,CLR,CLR,0.00,WeatherDisplay:10.37,2013-02-07 17:01:00,
2013-02-07 12:06:00,40.5,32.8,30.06,NE,45,4.2,4.6,74,0.00,CLR,CLR,0.00,WeatherDisplay:10.37,2013-02-07 17:06:00,
2013-02-07 12:11:00,40.3,32.6,30.05,SE,135,5.2,5.8,74,0.00,CLR,CLR,0.00,WeatherDisplay:10.37,2013-02-07 17:11:00,
2013-02-07 12:16:00,39.9,32.3,30.05,ESE,112,4.6,4.6,74,0.00,CLR,CLR,0.00,WeatherDisplay:10.37,2013-02-07 17:16:00,
2013-02-07 12:21:00,39.9,32.3,30.04,ENE,68,6.1,6.1,74,0.00,CLR,CLR,0.00,WeatherDisplay:10.37,2013-02-07 17:21:00,
2013-02-07 12:26:00,39.9,32.6,30.04,NE,45,5.3,5.8,75,0.00,CLR,CLR,0.00,WeatherDisplay:10.37,2013-02-07 17:26:00,
2013-02-07 12:32:00,40.3,33.0,30.04,East,90,6.8,6.8,75,0.00,CLR,CLR,0.00,WeatherDisplay:10.37,2013-02-07 17:32:00,
2013-02-07 12:37:00,40.1,32.8,30.03,SE,135,5.3,5.8,75,0.00,CLR,CLR,0.00,WeatherDisplay:10.37,2013-02-07 17:37:00,
2013-02-07 12:42:00,40.1,32.5,30.03,ESE,112,2.6,2.6,74,0.00,CLR,CLR,0.00,WeatherDisplay:10.37,2013-02-07 17:42:00,
2013-02-07 12:47:00,39.9,32.3,30.03,ESE,112,0.0,0.0,74,0.00,CLR,CLR,0.00,WeatherDisplay:10.37,2013-02-07 17:47:00,
2013-02-07 12:52:00,40.3,32.6,30.03,East,90,0.6,1.2,74,0.00,CLR,CLR,0.00,WeatherDisplay:10.37,2013-02-07 17:52:00,
2013-02-07 12:57:00,40.5,32.8,30.02,ENE,68,4.0,4.0,74,0.00,CLR,CLR,0.00,WeatherDisplay:10.37,2013-02-07 17:57:00,
2013-02-07 13:02:00,40.1,32.5,30.02,ENE,68,4.4,4.6,74,0.00,CLR,CLR,0.00,WeatherDisplay:10.37,2013-02-07 18:02:00,
2013-02-07 13:07:00,40.1,32.5,30.02,East,90,4.9,5.8,74,0.00,CLR,CLR,0.00,WeatherDisplay:10.37,2013-02-07 18:07:00,
2013-02-07 13:13:00,39.9,32.3,30.02,ESE,112,0.8,1.2,74,0.00,CLR,CLR,0.00,WeatherDisplay:10.37,2013-02-07 18:13:00,
2013-02-07 13:18:00,39.9,32.3,30.02,NE,45,4.2,6.9,74,0.00,CLR,CLR,0.00,WeatherDisplay:10.37,2013-02-07 18:18:00,
2013-02-07 13:23:00,40.3,32.6,30.02,NE,45,3.3,3.5,74,0.00,CLR,CLR,0.00,WeatherDisplay:10.37,2013-02-07 18:23:00,
2013-02-07 13:28:00,39.9,32.3,30.02,NE,45,1.5,1.5,74,0.00,CLR,CLR,0.00,WeatherDisplay:10.37,2013-02-07 18:28:00,
2013-02-07 13:33:00,40.3,32.6,30.02,East,90,0.0,0.0,74,0.00,CLR,CLR,0.00,WeatherDisplay:10.37,2013-02-07 18:33:00,
2013-02-07 13:38:00,40.6,33.0,30.01,ENE,68,2.0,2.3,74,0.00,CLR,CLR,0.00,WeatherDisplay:10.37,2013-02-07 18:38:00,
2013-02-07 13:43:00,40.6,32.7,30.01,East,90,1.7,1.7,73,0.00,CLR,CLR,0.00,WeatherDisplay:10.37,2013-02-07 18:43:00,
2013-02-07 13:48:00,40.6,32.7,30.01,NE,45,0.6,1.2,73,0.00,CLR,CLR,0.00,WeatherDisplay:10.37,2013-02-07 18:48:00,
2013-02-07 13:53:00,40.6,32.7,30.00,NE,45,1.1,1.2,73,0.00,CLR,CLR,0.00,WeatherDisplay:10.37,2013-02-07 18:53:00,
2013-02-07 13:58:00,40.3,32.3,30.00,NE,45,6.1,6.1,73,0.00,CLR,CLR,0.00,WeatherDisplay:10.37,2013-02-07 18:58:00,
2013-02-07 14:04:00,40.1,32.5,30.00,ENE,68,4.9,4.9,74,0.00,CLR,CLR,0.00,WeatherDisplay:10.37,2013-02-07 19:04:00,
2013-02-07 14:09:00,40.1,32.5,30.00,ENE,68,0.6,5.8,74,0.00,CLR,CLR,0.00,WeatherDisplay:10.37,2013-02-07 19:09:00,
2013-02-07 14:14:00,40.1,32.5,30.00,NE,45,4.6,6.9,74,0.00,CLR,CLR,0.00,WeatherDisplay:10.37,2013-02-07 19:14:00,
2013-02-07 14:19:00,40.3,32.6,30.00,NE,45,2.4,5.8,74,0.00,CLR,CLR,0.00,WeatherDisplay:10.37,2013-02-07 19:19:00,
2013-02-07 14:24:00,39.9,32.3,30.00,ENE,68,0.6,1.2,74,0.00,CLR,CLR,0.00,WeatherDisplay:10.37,2013-02-07 19:24:00,
2013-02-07 14:29:00,39.7,32.8,30.00,ENE,68,4.2,4.6,76,0.00,CLR,CLR,0.00,WeatherDisplay:10.37,2013-02-07 19:29:00,
2013-02-07 14:34:00,39.6,33.3,30.00,SSE,158,0.0,0.0,78,0.00,CLR,CLR,0.00,WeatherDisplay:10.37,2013-02-07 19:34:00,
2013-02-07 14:39:00,39.6,33.6,29.99,South,180,0.0,0.0,79,0.00,CLR,CLR,0.00,WeatherDisplay:10.37,2013-02-07 19:39:00,
2013-02-07 14:44:00,39.6,33.6,30.00,East,90,0.0,0.0,79,0.00,CLR,CLR,0.00,WeatherDisplay:10.37,2013-02-07 19:44:00,
2013-02-07 14:49:00,39.6,34.2,30.00,SE,135,3.1,3.5,81,0.00,CLR,CLR,0.00,WeatherDisplay:10.37,2013-02-07 19:49:00,
2013-02-07 14:54:00,39.2,33.9,30.00,SE,135,0.0,0.0,81,0.00,CLR,CLR,0.00,WeatherDisplay:10.37,2013-02-07 19:54:00,
2013-02-07 14:59:00,38.8,33.5,30.00,SSE,158,0.0,0.0,81,0.00,CLR,CLR,0.00,WeatherDisplay:10.37,2013-02-07 19:59:00,
2013-02-07 15:04:00,38.8,33.8,30.00,SE,135,0.0,0.0,82,0.00,CLR,CLR,0.00,WeatherDisplay:10.37,2013-02-07 20:04:00,
2013-02-07 15:09:00,38.8,33.8,30.00,East,90,0.0,0.0,82,0.00,CLR,CLR,0.00,WeatherDisplay:10.37,2013-02-07 20:09:00,
2013-02-07 15:14:00,38.8,34.1,30.00,SE,135,0.0,0.0,83,0.00,CLR,CLR,0.00,WeatherDisplay:10.37,2013-02-07 20:14:00,
2013-02-07 15:19:00,38.7,33.6,30.00,ENE,68,0.0,0.0,82,0.00,CLR,CLR,0.00,WeatherDisplay:10.37,2013-02-07 20:19:00,
2013-02-07 15:24:00,38.5,33.8,30.00,SSE,158,0.0,0.0,83,0.00,CLR,CLR,0.00,WeatherDisplay:10.37,2013-02-07 20:24:00,
2013-02-07 15:29:00,38.5,34.1,30.00,East,90,0.0,0.0,84,0.03,RA,RA,0.03,WeatherDisplay:10.37,2013-02-07 20:29:00,
2013-02-07 15:35:00,38.5,34.1,30.00,East,90,0.0,0.0,84,0.03,RA,RA,0.03,WeatherDisplay:10.37,2013-02-07 20:35:00,
2013-02-07 15:40:00,38.3,33.9,29.99,NE,45,0.0,0.0,84,0.03,CLR,CLR,0.03,WeatherDisplay:10.37,2013-02-07 20:40:00,
2013-02-07 15:45:00,38.1,33.7,29.99,ESE,112,0.0,0.0,84,0.03,CLR,CLR,0.03,WeatherDisplay:10.37,2013-02-07 20:45:00,
2013-02-07 15:50:00,38.1,33.7,29.99,ENE,68,0.0,0.0,84,0.03,CLR,CLR,0.03,WeatherDisplay:10.37,2013-02-07 20:50:00,
2013-02-07 15:55:00,37.9,33.8,29.99,ENE,68,0.0,0.0,85,0.03,CLR,CLR,0.03,WeatherDisplay:10.37,2013-02-07 20:55:00,
2013-02-07 16:00:00,37.6,33.5,29.99,ENE,68,0.0,0.0,85,0.06,RA,RA,0.06,WeatherDisplay:10.37,2013-02-07 21:00:00,
2013-02-07 16:05:00,37.2,33.1,29.99,NE,45,0.0,0.0,85,0.06,RA,RA,0.06,WeatherDisplay:10.37,2013-02-07 21:05:00,
2013-02-07 16:10:00,37.2,33.4,29.98,ENE,68,0.0,0.0,86,0.06,CLR,CLR,0.06,WeatherDisplay:10.37,2013-02-07 21:10:00,
2013-02-07 16:16:00,37.2,33.4,29.98,NE,45,0.0,0.0,86,0.06,CLR,CLR,0.06,WeatherDisplay:10.37,2013-02-07 21:16:00,
2013-02-07 16:21:00,37.0,33.2,29.98,ENE,68,4.2,4.6,86,0.09,RA,RA,0.09,WeatherDisplay:10.37,2013-02-07 21:21:00,
2013-02-07 16:26:00,37.0,33.5,29.98,NE,45,0.0,0.0,87,0.06,RA,RA,0.09,WeatherDisplay:10.37,2013-02-07 21:26:00,
2013-02-07 16:31:00,36.7,33.2,29.98,NE,45,0.0,0.0,87,0.09,RA,RA,0.12,WeatherDisplay:10.37,2013-02-07 21:31:00,
2013-02-07 16:36:00,36.7,33.5,29.98,ENE,68,0.0,0.0,88,0.09,RA,RA,0.12,WeatherDisplay:10.37,2013-02-07 21:36:00,
2013-02-07 16:42:00,36.7,33.5,29.98,ENE,68,2.2,2.3,88,0.09,CLR,CLR,0.12,WeatherDisplay:10.37,2013-02-07 21:42:00,
2013-02-07 16:47:00,36.7,33.5,29.97,NE,45,0.0,0.0,88,0.09,CLR,CLR,0.12,WeatherDisplay:10.37,2013-02-07 21:47:00,
2013-02-07 16:52:00,36.7,33.5,29.97,ENE,68,0.0,0.0,88,0.12,RA,RA,0.15,WeatherDisplay:10.37,2013-02-07 21:52:00,
2013-02-07 16:57:00,36.1,32.9,29.97,East,90,4.6,6.9,88,0.12,RA,RA,0.15,WeatherDisplay:10.37,2013-02-07 21:57:00,
2013-02-07 17:03:00,36.3,33.1,29.97,NE,45,4.6,4.6,88,0.09,,,0.15,WeatherDisplay:10.37,2013-02-07 22:03:00,
2013-02-07 17:08:00,36.1,32.9,29.96,NE,45,4.2,4.6,88,0.09,CLR,CLR,0.15,WeatherDisplay:10.37,2013-02-07 22:08:00,
2013-02-07 17:13:00,36.3,33.1,29.96,NE,45,5.2,5.8,88,0.09,CLR,CLR,0.15,WeatherDisplay:10.37,2013-02-07 22:13:00,
2013-02-07 17:18:00,36.0,32.8,29.96,NE,45,6.3,6.3,88,0.09,CLR,CLR,0.15,WeatherDisplay:10.37,2013-02-07 22:18:00,
2013-02-07 17:23:00,36.1,33.2,29.96,East,90,3.5,3.5,89,0.06,CLR,CLR,0.15,WeatherDisplay:10.37,2013-02-07 22:23:00,
2013-02-07 17:28:00,36.0,33.0,29.96,ENE,68,2.6,2.6,89,0.09,RA,RA,0.18,WeatherDisplay:10.37,2013-02-07 22:28:00,
2013-02-07 17:33:00,36.0,33.0,29.96,NE,45,3.8,3.8,89,0.06,RA,RA,0.18,WeatherDisplay:10.37,2013-02-07 22:33:00,
2013-02-07 17:38:00,35.8,32.9,29.95,NE,45,6.5,6.5,89,0.06,,,0.18,WeatherDisplay:10.37,2013-02-07 22:38:00,
2013-02-07 17:44:00,36.1,33.2,29.95,SE,135,0.8,1.2,89,0.06,CLR,CLR,0.18,WeatherDisplay:10.37,2013-02-07 22:44:00,
2013-02-07 17:49:00,35.6,32.7,29.95,ENE,68,3.1,3.5,89,0.06,CLR,CLR,0.18,WeatherDisplay:10.37,2013-02-07 22:49:00,
2013-02-07 17:54:00,35.4,32.5,29.95,NE,45,3.8,3.8,89,0.03,CLR,CLR,0.18,WeatherDisplay:10.37,2013-02-07 22:54:00,
2013-02-07 17:59:00,35.6,32.7,29.95,NE,45,0.8,1.2,89,0.03,CLR,CLR,0.18,WeatherDisplay:10.37,2013-02-07 22:59:00,
2013-02-07 18:04:00,35.6,32.7,29.95,ENE,68,1.1,1.2,89,0.03,CLR,CLR,0.18,WeatherDisplay:10.37,2013-02-07 23:04:00,
2013-02-07 18:09:00,35.6,32.7,29.95,ENE,68,3.5,3.5,89,0.03,CLR,CLR,0.18,WeatherDisplay:10.37,2013-02-07 23:09:00,
2013-02-07 18:15:00,35.2,32.3,29.95,ENE,68,0.4,0.0,89,0.06,RA,RA,0.21,WeatherDisplay:10.37,2013-02-07 23:15:00,
2013-02-07 18:20:00,35.2,32.3,29.95,NE,45,3.5,3.5,89,0.06,RA,RA,0.21,WeatherDisplay:10.37,2013-02-07 23:20:00,
2013-02-07 18:25:00,34.9,32.0,29.95,ESE,112,3.3,3.5,89,0.06,CLR,CLR,0.21,WeatherDisplay:10.37,2013-02-07 23:25:00,
2013-02-07 18:30:00,35.4,32.5,29.94,East,90,2.2,2.3,89,0.03,CLR,CLR,0.21,WeatherDisplay:10.37,2013-02-07 23:30:00,
2013-02-07 18:35:00,35.2,32.3,29.94,ENE,68,4.4,4.6,89,0.03,CLR,CLR,0.21,WeatherDisplay:10.37,2013-02-07 23:35:00,
2013-02-07 18:40:00,35.4,32.5,29.94,NE,45,5.3,5.8,89,0.03,CLR,CLR,0.21,WeatherDisplay:10.37,2013-02-07 23:40:00,
2013-02-07 18:45:00,35.2,32.3,29.94,ENE,68,4.0,4.0,89,0.03,CLR,CLR,0.21,WeatherDisplay:10.37,2013-02-07 23:45:00,
2013-02-07 18:50:00,35.2,32.6,29.94,NE,45,4.0,4.0,90,0.03,CLR,CLR,0.21,WeatherDisplay:10.37,2013-02-07 23:50:00,
2013-02-07 18:55:00,35.2,32.6,29.93,ENE,68,8.3,10.4,90,0.03,CLR,CLR,0.21,WeatherDisplay:10.37,2013-02-07 23:55:00,
2013-02-07 19:00:00,35.2,32.6,29.94,ESE,112,7.9,8.1,90,0.03,CLR,CLR,0.21,WeatherDisplay:10.37,2013-02-08 00:00:00,
2013-02-07 19:05:00,35.1,32.4,29.93,NE,45,7.4,7.4,90,0.03,CLR,CLR,0.21,WeatherDisplay:10.37,2013-02-08 00:05:00,
2013-02-07 19:10:00,34.9,32.2,29.94,ENE,68,8.8,8.8,90,0.03,CLR,CLR,0.21,WeatherDisplay:10.37,2013-02-08 00:10:00,
2013-02-07 19:16:00,35.1,32.4,29.94,ENE,68,4.9,4.9,90,0.00,CLR,CLR,0.21,WeatherDisplay:10.37,2013-02-08 00:16:00,
2013-02-07 19:21:00,35.2,32.6,29.93,ENE,68,3.1,3.5,90,0.03,RA,RA,0.24,WeatherDisplay:10.37,2013-02-08 00:21:00,
2013-02-07 19:26:00,35.1,32.4,29.93,ENE,68,5.2,5.8,90,0.03,RA,RA,0.24,WeatherDisplay:10.37,2013-02-08 00:26:00,
2013-02-07 19:31:00,35.1,32.4,29.93,ENE,68,2.2,2.3,90,0.03,CLR,CLR,0.24,WeatherDisplay:10.37,2013-02-08 00:31:00,
2013-02-07 19:36:00,34.9,32.2,29.93,East,90,6.5,6.9,90,0.06,RA,RA,0.28,WeatherDisplay:10.37,2013-02-08 00:36:00,
2013-02-07 19:41:00,35.1,32.4,29.93,ENE,68,4.4,4.6,90,0.06,RA,RA,0.28,WeatherDisplay:10.37,2013-02-08 00:41:00,
2013-02-07 19:46:00,34.9,32.2,29.92,NE,45,7.9,8.1,90,0.09,RA,RA,0.31,WeatherDisplay:10.37,2013-02-08 00:46:00,
2013-02-07 19:51:00,34.9,32.2,29.92,ENE,68,6.5,6.9,90,0.09,RA,RA,0.31,WeatherDisplay:10.37,2013-02-08 00:51:00,
2013-02-07 19:56:00,34.9,32.2,29.92,NE,45,6.8,6.9,90,0.12,RA,RA,0.34,WeatherDisplay:10.37,2013-02-08 00:56:00,
2013-02-07 20:01:00,34.9,32.2,29.92,NE,45,8.3,8.3,90,0.12,RA,RA,0.34,WeatherDisplay:10.37,2013-02-08 01:01:00,
2013-02-07 20:06:00,34.9,32.2,29.91,NE,45,8.6,8.6,90,0.12,,,0.34,WeatherDisplay:10.37,2013-02-08 01:06:00,
2013-02-07 20:12:00,34.9,32.2,29.91,NE,45,7.4,8.1,90,0.12,CLR,CLR,0.34,WeatherDisplay:10.37,2013-02-08 01:12:00,
2013-02-07 20:17:00,34.9,32.2,29.91,NE,45,10.2,10.2,90,0.15,RA,RA,0.37,WeatherDisplay:10.37,2013-02-08 01:17:00,
2013-02-07 20:22:00,34.9,32.2,29.90,NE,45,8.1,8.1,90,0.12,RA,RA,0.37,WeatherDisplay:10.37,2013-02-08 01:22:00,
2013-02-07 20:27:00,34.9,32.2,29.91,SSE,158,5.3,5.8,90,0.12,,,0.37,WeatherDisplay:10.37,2013-02-08 01:27:00,
2013-02-07 20:32:00,34.9,32.2,29.91,ENE,68,3.1,3.5,90,0.12,CLR,CLR,0.37,WeatherDisplay:10.37,2013-02-08 01:32:00,
2013-02-07 20:37:00,35.2,32.6,29.91,ENE,68,5.3,5.8,90,0.09,CLR,CLR,0.37,WeatherDisplay:10.37,2013-02-08 01:37:00,
2013-02-07 20:42:00,35.2,32.6,29.91,ENE,68,5.3,5.8,90,0.09,CLR,CLR,0.37,WeatherDisplay:10.37,2013-02-08 01:42:00,
2013-02-07 20:47:00,35.1,32.4,29.91,ENE,68,4.0,4.0,90,0.09,RA,RA,0.40,WeatherDisplay:10.37,2013-02-08 01:47:00,
2013-02-07 20:52:00,35.2,32.6,29.91,East,90,0.0,0.0,90,0.09,RA,RA,0.40,WeatherDisplay:10.37,2013-02-08 01:52:00,
2013-02-07 20:58:00,35.2,32.6,29.91,ESE,112,6.3,6.3,90,0.06,CLR,CLR,0.40,WeatherDisplay:10.37,2013-02-08 01:58:00,
2013-02-07 21:03:00,35.1,32.4,29.91,ENE,68,2.9,3.5,90,0.06,CLR,CLR,0.40,WeatherDisplay:10.37,2013-02-08 02:03:00,
2013-02-07 21:08:00,35.2,32.6,29.90,ENE,68,2.6,3.5,90,0.09,RA,RA,0.43,WeatherDisplay:10.37,2013-02-08 02:08:00,
2013-02-07 21:13:00,35.2,32.6,29.90,NE,45,4.2,4.6,90,0.09,RA,RA,0.43,WeatherDisplay:10.37,2013-02-08 02:13:00,
2013-02-07 21:18:00,35.2,32.6,29.90,East,90,2.9,3.5,90,0.06,CLR,CLR,0.43,WeatherDisplay:10.37,2013-02-08 02:18:00,
2013-02-07 21:23:00,34.9,32.2,29.90,ENE,68,3.8,3.8,90,0.09,RA,RA,0.46,WeatherDisplay:10.37,2013-02-08 02:23:00,
2013-02-07 21:28:00,35.2,32.6,29.90,ENE,68,5.5,5.8,90,0.09,RA,RA,0.46,WeatherDisplay:10.37,2013-02-08 02:28:00,
2013-02-07 21:34:00,35.2,32.6,29.90,ENE,68,1.7,1.7,90,0.09,CLR,CLR,0.46,WeatherDisplay:10.37,2013-02-08 02:34:00,
2013-02-07 21:39:00,35.2,32.6,29.90,South,180,3.8,3.8,90,0.09,CLR,CLR,0.46,WeatherDisplay:10.37,2013-02-08 02:39:00,
2013-02-07 21:44:00,35.2,32.6,29.90,NE,45,5.5,5.8,90,0.09,CLR,CLR,0.46,WeatherDisplay:10.37,2013-02-08 02:44:00,
2013-02-07 21:49:00,35.2,32.6,29.89,ENE,68,0.8,1.2,90,0.09,RA,RA,0.49,WeatherDisplay:10.37,2013-02-08 02:49:00,
2013-02-07 21:54:00,35.2,32.6,29.89,ENE,68,2.2,2.3,90,0.09,RA,RA,0.49,WeatherDisplay:10.37,2013-02-08 02:54:00,
2013-02-07 21:59:00,35.2,32.6,29.89,ENE,68,4.9,4.9,90,0.09,CLR,CLR,0.49,WeatherDisplay:10.37,2013-02-08 02:59:00,
2013-02-07 22:04:00,35.2,32.6,29.89,ENE,68,0.8,1.2,90,0.09,CLR,CLR,0.49,WeatherDisplay:10.37,2013-02-08 03:04:00,
2013-02-07 22:09:00,35.2,32.6,29.89,ENE,68,0.0,0.0,90,0.09,RA,RA,0.52,WeatherDisplay:10.37,2013-02-08 03:09:00,
2013-02-07 22:14:00,35.2,32.6,29.89,NE,45,2.2,2.3,90,0.09,RA,RA,0.52,WeatherDisplay:10.37,2013-02-08 03:14:00,
2013-02-07 22:20:00,35.2,32.6,29.88,NE,45,0.0,0.0,90,0.12,RA,RA,0.55,WeatherDisplay:10.37,2013-02-08 03:20:00,
2013-02-07 22:25:00,35.2,32.6,29.89,ENE,68,0.0,0.0,90,0.09,RA,RA,0.55,WeatherDisplay:10.37,2013-02-08 03:25:00,
2013-02-07 22:30:00,35.2,32.6,29.88,ENE,68,0.0,0.0,90,0.09,CLR,CLR,0.55,WeatherDisplay:10.37,2013-02-08 03:30:00,
2013-02-07 22:35:00,35.2,32.6,29.88,ENE,68,3.3,3.5,90,0.09,CLR,CLR,0.55,WeatherDisplay:10.37,2013-02-08 03:35:00,
2013-02-07 22:40:00,35.2,32.6,29.88,ENE,68,1.5,1.5,90,0.12,RA,RA,0.58,WeatherDisplay:10.37,2013-02-08 03:40:00,
2013-02-07 22:45:00,35.2,32.6,29.88,NE,45,0.0,0.0,90,0.12,RA,RA,0.58,WeatherDisplay:10.37,2013-02-08 03:45:00,
2013-02-07 22:50:00,35.2,32.6,29.87,ENE,68,0.0,0.0,90,0.09,CLR,CLR,0.58,WeatherDisplay:10.37,2013-02-08 03:50:00,
2013-02-07 22:56:00,35.2,32.6,29.87,ENE,68,0.0,0.0,90,0.09,CLR,CLR,0.58,WeatherDisplay:10.37,2013-02-08 03:56:00,
2013-02-07 23:01:00,35.2,32.6,29.87,ENE,68,0.0,0.0,90,0.12,RA,RA,0.61,WeatherDisplay:10.37,2013-02-08 04:01:00,
2013-02-07 23:06:00,35.2,32.6,29.86,NE,45,3.5,3.5,90,0.12,RA,RA,0.61,WeatherDisplay:10.37,2013-02-08 04:06:00,
2013-02-07 23:11:00,35.2,32.6,29.86,NE,45,0.0,0.0,90,0.09,,,0.61,WeatherDisplay:10.37,2013-02-08 04:11:00,
2013-02-07 23:16:00,35.2,32.6,29.86,NE,45,1.3,1.3,90,0.09,CLR,CLR,0.61,WeatherDisplay:10.37,2013-02-08 04:16:00,
2013-02-07 23:22:00,35.2,32.6,29.86,NE,45,0.0,0.0,90,0.09,RA,RA,0.64,WeatherDisplay:10.37,2013-02-08 04:22:00,
2013-02-07 23:27:00,35.2,32.6,29.86,NE,45,0.0,0.0,90,0.09,RA,RA,0.64,WeatherDisplay:10.37,2013-02-08 04:27:00,
2013-02-07 23:32:00,35.2,32.6,29.86,ENE,68,0.0,0.0,90,0.09,CLR,CLR,0.64,WeatherDisplay:10.37,2013-02-08 04:32:00,
2013-02-07 23:37:00,35.2,32.6,29.85,ENE,68,0.0,0.0,90,0.09,CLR,CLR,0.64,WeatherDisplay:10.37,2013-02-08 04:37:00,
2013-02-07 23:42:00,35.4,32.8,29.85,NE,45,0.0,0.0,90,0.09,RA,RA,0.67,WeatherDisplay:10.37,2013-02-08 04:42:00,
2013-02-07 23:47:00,35.4,32.8,29.85,NE,45,0.0,0.0,90,0.09,RA,RA,0.67,WeatherDisplay:10.37,2013-02-08 04:47:00,
2013-02-07 23:52:00,35.4,32.8,29.85,NE,45,0.0,0.0,90,0.12,RA,RA,0.70,WeatherDisplay:10.37,2013-02-08 04:52:00,
2013-02-07 23:57:00,35.4,32.8,29.85,NE,45,0.0,0.0,90,0.12,RA,RA,0.70,WeatherDisplay:10.37,2013-02-08 04:57:00,